San Diego, CA

2:39 PM PST on February 21, 2017 (GMT -0800)
Miramar Marine Corps Air Station-Mitscher

Weather History for KNKX - March, 2013

Change the Weather History Date:

Wednesday, March 13, 2013

  Actual Average Record
Temperature  
Mean Temperature 60 °F -  
Max Temperature 77 °F 64 °F 90 °F (2015)
Min Temperature 44 °F 46 °F 39 °F (2006)
Degree Days  
Heating Degree Days 6    
Growing Degree Days 10 (Base 50)    
Moisture  
Dew Point 48 °F    
Average Humidity 77    
Maximum Humidity 94    
Minimum Humidity 38    
Precipitation  
Precipitation 0.00 in - - ()
Sea Level Pressure  
Sea Level Pressure 30.06 in    
Wind  
Wind Speed 4 mph (NW)    
Max Wind Speed 7 mph    
Max Gust Speed -    
Visibility 5 miles    
Events Fog    
Averages and records for this station are not official NWS values.
T = Trace of Precipitation, MM = Missing Value Source: NWS Daily Summary

Daily Weather History Graph

Daily Weather History Graph

Search for Another Location

Airport or City:

Trip Planner

Search our weather history database for the weather conditions in past years. The results will help you decide how hot, cold, wet, or windy it might be!

Date:

Astronomy

Mar. 13, 2013 Rise Set
Actual Time 7:00 AM PDT 6:55 PM PDT
Civil Twilight 6:36 AM PDT 7:19 PM PDT
Nautical Twilight 6:07 AM PDT 7:48 PM PDT
Astronomical Twilight 5:39 AM PDT 8:17 PM PDT
Moon 7:51 AM PDT (3/13) 9:06 PM PDT (3/13)
Length of Visible Light 12h 43m
Length of Day
11h 54m
Waxing Crescent, 4% of the Moon is Illuminated
Mar 13
Waxing Crescent
Mar 19
First Quarter
Mar 27
Full
Apr 2
Last Quarter
Apr 10
New

Hourly Weather History & Observations

Time (PDT) Temp. Windchill Dew Point Humidity Pressure Visibility Wind Dir Wind Speed Gust Speed Precip Events Conditions
12:15 AM 51.8 °F - 48.2 °F 88% 30.08 in 0.5 mi NNW 6.9 mph - N/A Fog Fog
12:55 AM 52.0 °F - 48.9 °F 89% 30.06 in 0.5 mi NNW 4.6 mph - N/A Fog Fog
1:02 AM 51.8 °F - 48.2 °F 88% 30.07 in 0.2 mi Calm Calm - N/A Fog Fog
1:55 AM 51.1 °F - 48.0 °F 89% 30.06 in 0.2 mi NNW 3.5 mph - N/A Fog Fog
2:55 AM 48.0 °F - 45.0 °F 89% 30.04 in 2.0 mi Calm Calm - N/A   Scattered Clouds
3:55 AM 46.0 °F 44.8 °F 43.0 °F 89% 30.03 in 5.0 mi WNW 3.5 mph - N/A   Partly Cloudy
4:55 AM 45.0 °F 43.5 °F 42.1 °F 90% 30.04 in 5.0 mi NW 3.5 mph - N/A   Mostly Cloudy
5:19 AM 48.2 °F - 44.6 °F 87% 30.06 in 0.5 mi North 3.5 mph - N/A Fog Fog
5:55 AM 46.9 °F - 44.1 °F 90% 30.05 in 3.0 mi North 4.6 mph - N/A   Mostly Cloudy
6:38 AM 46.4 °F - 42.8 °F 87% 30.06 in 7.0 mi Calm Calm - N/A   Smoke
6:55 AM 45.0 °F - 42.1 °F 90% 30.06 in 7.0 mi Calm Calm - N/A   Smoke
7:01 AM 44.6 °F - 42.8 °F 93% 30.07 in - Calm Calm - N/A   Smoke
7:05 AM 44.6 °F 43.1 °F 42.8 °F 93% 30.07 in 7.0 mi WNW 3.5 mph - N/A   Smoke
7:33 AM 48.2 °F - 44.6 °F 87% 30.08 in 7.0 mi NNW 3.5 mph - N/A   Partly Cloudy
7:55 AM 51.1 °F - 46.9 °F 86% 30.08 in 7.0 mi North 3.5 mph - N/A   Partly Cloudy
8:55 AM 62.1 °F - 51.1 °F 67% 30.08 in 10.0 mi Calm Calm - N/A   Partly Cloudy
9:55 AM 68.0 °F - 46.9 °F 47% 30.09 in 10.0 mi WNW 4.6 mph - N/A   Partly Cloudy
10:55 AM 71.1 °F - 50.0 °F 47% 30.09 in 10.0 mi West 5.8 mph - N/A   Partly Cloudy
11:55 AM 72.0 °F - 51.1 °F 48% 30.08 in 10.0 mi NW 4.6 mph - N/A   Partly Cloudy
12:55 PM 72.0 °F - 50.0 °F 46% 30.07 in 10.0 mi NW 5.8 mph - N/A   Partly Cloudy
1:55 PM 73.0 °F - 50.0 °F 44% 30.05 in 10.0 mi WNW 4.6 mph - N/A   Partly Cloudy
2:55 PM 73.0 °F - 50.0 °F 44% 30.04 in 10.0 mi WNW 5.8 mph - N/A   Partly Cloudy
3:55 PM 75.9 °F - 48.9 °F 38% 30.02 in 10.0 mi Variable 3.5 mph - N/A   Partly Cloudy
4:55 PM 73.0 °F - 54.0 °F 51% 30.02 in 10.0 mi WSW 5.8 mph - N/A   Partly Cloudy
5:55 PM 66.0 °F - 51.1 °F 59% 30.03 in 10.0 mi West 4.6 mph - N/A   Clear
6:55 PM 59.0 °F - 50.0 °F 72% 30.04 in 6.0 mi Calm Calm - N/A   Haze
7:55 PM 54.0 °F - 48.9 °F 83% 30.05 in 3.0 mi West 4.6 mph - N/A   Haze
8:55 PM 53.1 °F - 48.9 °F 86% 30.07 in 0.5 mi NW 4.6 mph - N/A   Mostly Cloudy
9:08 PM 53.6 °F - 51.8 °F 94% 30.08 in 0.5 mi NW 4.6 mph - N/A Fog Fog
9:32 PM 53.6 °F - 51.8 °F 94% 30.09 in 0.2 mi North 4.6 mph - N/A Fog Fog
9:55 PM 53.1 °F - 51.1 °F 93% 30.08 in 0.2 mi Calm Calm - N/A Fog Fog
10:22 PM 53.6 °F - 50.0 °F 88% 30.08 in 1.0 mi ENE 4.6 mph - N/A   Scattered Clouds
10:55 PM 51.1 °F - 46.9 °F 86% 30.06 in 6.0 mi SE 4.6 mph - N/A   Scattered Clouds
11:46 PM 51.8 °F - 48.2 °F 88% 30.08 in 0.2 mi WNW 6.9 mph - N/A Fog Fog
11:55 PM 53.1 °F - 50.0 °F 89% 30.07 in 0.2 mi West 5.8 mph - N/A Fog Fog